HISTORICAL SENSOR DATA

Sensor Data Report

DB LIVE
CURRENT TIME--:--:--
DEVICE NETWORK Gateway Status
13 ESP · realtime ~1s · history 60s
Weather WS-MOD-01
ONLINE
Actuator ACT-MOD-01
OFFLINE
Mainboard L3 MB-L3-01
ONLINE
Mainboard L5 MB-L5-01
ONLINE
Remote AC AC-REMOTE-01
ONLINE
PZEM L3-01 PWR-L3-01
OFFLINE
PZEM L3-02 PWR-L3-02
OFFLINE
PZEM L3-03 PWR-L3-03
OFFLINE
PZEM L3-04 PWR-L3-04
OFFLINE
PZEM L5-01 PWR-L5-01
ONLINE
PZEM L5-02 PWR-L5-02
ONLINE
PZEM L5-03 PWR-L5-03
OFFLINE
PZEM L5-04 PWR-L5-04
OFFLINE
REPORT FILTER

Periode & Sensor

DATABASE HISTORY
RESET
QUICK RANGE Hari ini 7 hari 30 hari
PERIODE04 Aug 2026sampai 02 Sep 2026
TOTAL DATA40,278sensor readings
MINIMUM-0.50sesuai filter
AVERAGE56.78sesuai filter
MAXIMUM998.00sesuai filter
REPORT RESULT

Data Sensor

04/08/2026 — 02/09/2026 EXPORT CSV
NOTANGGALWAKTUDEVICECHANNELSENSORVALUEUNIT
13301 02/09/2026 14:53:52 MB-L3-01Mainboard Lantai 3 L3-SHT-03-T SHT20 3 Temperature 31.90 °C
13302 02/09/2026 14:53:52 MB-L5-01Mainboard Lantai 5 L5-RAD-01 Radiation 1 2.00 W/m²
13303 02/09/2026 14:53:52 MB-L5-01Mainboard Lantai 5 L5-AI-03 Analog Input 3 3.05 V
13304 02/09/2026 14:53:52 MB-L3-01Mainboard Lantai 3 L3-SHT-02-T SHT20 2 Temperature 32.10 °C
13305 02/09/2026 14:53:52 MB-L5-01Mainboard Lantai 5 L5-AI-02 Analog Input 2 3.05 V
13306 02/09/2026 14:53:52 MB-L3-01Mainboard Lantai 3 L3-BGT-03 Black Globe Temperature 3 29.40 °C
13307 02/09/2026 14:53:52 MB-L5-01Mainboard Lantai 5 L5-AI-01 Analog Input 1 3.05 V
13308 02/09/2026 14:53:52 MB-L3-01Mainboard Lantai 3 L3-ST-02 Surface Temperature 2 30.40 °C
13309 02/09/2026 14:53:52 MB-L3-01Mainboard Lantai 3 L3-AI-06 Analog Input 6 3.12 V
13310 02/09/2026 14:53:52 MB-L3-01Mainboard Lantai 3 L3-LUX-06 Illuminance / LUX 6 31.80 lux
13311 02/09/2026 14:53:51 MB-L5-01Mainboard Lantai 5 L5-HFT-02 Heat Flow Temperature 2 30.10 °C
13312 02/09/2026 14:53:51 MB-L5-01Mainboard Lantai 5 L5-SHT-01-RH SHT20 1 Humidity 48.30 %RH
13313 02/09/2026 14:53:51 MB-L5-01Mainboard Lantai 5 L5-HFT-01 Heat Flow Temperature 1 30.20 °C
13314 02/09/2026 14:53:51 MB-L5-01Mainboard Lantai 5 L5-LUX-01 Illuminance / LUX 1 228.90 lux
13315 02/09/2026 14:53:51 MB-L5-01Mainboard Lantai 5 L5-LUX-06 Illuminance / LUX 6 227.00 lux
13316 02/09/2026 14:53:51 MB-L5-01Mainboard Lantai 5 L5-ST-02 Surface Temperature 2 30.40 °C
13317 02/09/2026 14:53:51 MB-L5-01Mainboard Lantai 5 L5-LUX-02 Illuminance / LUX 2 239.20 lux
13318 02/09/2026 14:53:51 MB-L5-01Mainboard Lantai 5 L5-ST-01 Surface Temperature 1 30.10 °C
13319 02/09/2026 14:53:51 MB-L5-01Mainboard Lantai 5 L5-RAD-02 Radiation 2 2.00 W/m²
13320 02/09/2026 14:53:51 MB-L5-01Mainboard Lantai 5 L5-AI-06 Analog Input 6 3.05 V
13321 02/09/2026 14:53:51 MB-L5-01Mainboard Lantai 5 L5-SHT-02-RH SHT20 2 Humidity 48.00 %RH
13322 02/09/2026 14:53:51 MB-L5-01Mainboard Lantai 5 L5-LUX-05 Illuminance / LUX 5 458.10 lux
13323 02/09/2026 14:53:51 MB-L5-01Mainboard Lantai 5 L5-LUX-04 Illuminance / LUX 4 243.60 lux
13324 02/09/2026 14:53:51 MB-L5-01Mainboard Lantai 5 L5-AI-05 Analog Input 5 3.05 V
13325 02/09/2026 14:53:51 MB-L5-01Mainboard Lantai 5 L5-SHT-03-T SHT20 3 Temperature 32.20 °C
13326 02/09/2026 14:53:51 MB-L5-01Mainboard Lantai 5 L5-SHT-01-T SHT20 1 Temperature 32.30 °C
13327 02/09/2026 14:53:51 MB-L5-01Mainboard Lantai 5 L5-SHT-02-T SHT20 2 Temperature 32.30 °C
13328 02/09/2026 14:53:51 MB-L5-01Mainboard Lantai 5 L5-SHT-03-RH SHT20 3 Humidity 48.40 %RH
13329 02/09/2026 14:53:51 MB-L5-01Mainboard Lantai 5 L5-AI-04 Analog Input 4 3.05 V
13330 02/09/2026 14:53:51 MB-L5-01Mainboard Lantai 5 L5-RAD-01 Radiation 1 2.00 W/m²
13331 02/09/2026 14:53:51 MB-L5-01Mainboard Lantai 5 L5-AI-03 Analog Input 3 3.05 V
13332 02/09/2026 14:53:51 MB-L5-01Mainboard Lantai 5 L5-AI-02 Analog Input 2 3.05 V
13333 02/09/2026 14:53:51 MB-L5-01Mainboard Lantai 5 L5-AI-01 Analog Input 1 3.05 V
13334 02/09/2026 14:53:51 MB-L5-01Mainboard Lantai 5 L5-BGT-03 Black Globe Temperature 3 29.80 °C
13335 02/09/2026 14:53:51 MB-L5-01Mainboard Lantai 5 L5-LUX-03 Illuminance / LUX 3 142.20 lux
13336 02/09/2026 14:53:51 MB-L5-01Mainboard Lantai 5 L5-BGT-02 Black Globe Temperature 2 29.70 °C
13337 02/09/2026 14:53:51 MB-L5-01Mainboard Lantai 5 L5-BGT-01 Black Globe Temperature 1 29.70 °C
13338 02/09/2026 14:53:49 MB-L3-01Mainboard Lantai 3 L3-AI-02 Analog Input 2 3.12 V
13339 02/09/2026 14:53:49 MB-L5-01Mainboard Lantai 5 L5-ST-01 Surface Temperature 1 30.30 °C
13340 02/09/2026 14:53:49 MB-L3-01Mainboard Lantai 3 L3-HFT-02 Heat Flow Temperature 2 29.20 °C
13341 02/09/2026 14:53:49 MB-L5-01Mainboard Lantai 5 L5-RAD-02 Radiation 2 2.00 W/m²
13342 02/09/2026 14:53:49 MB-L3-01Mainboard Lantai 3 L3-SHT-01-T SHT20 1 Temperature 32.10 °C
13343 02/09/2026 14:53:49 MB-L5-01Mainboard Lantai 5 L5-AI-06 Analog Input 6 3.05 V
13344 02/09/2026 14:53:49 MB-L5-01Mainboard Lantai 5 L5-SHT-02-RH SHT20 2 Humidity 47.90 %RH
13345 02/09/2026 14:53:49 MB-L5-01Mainboard Lantai 5 L5-LUX-05 Illuminance / LUX 5 281.20 lux
13346 02/09/2026 14:53:49 MB-L3-01Mainboard Lantai 3 L3-SHT-01-RH SHT20 1 Humidity 48.10 %RH
13347 02/09/2026 14:53:49 MB-L5-01Mainboard Lantai 5 L5-LUX-04 Illuminance / LUX 4 147.10 lux
13348 02/09/2026 14:53:49 MB-L3-01Mainboard Lantai 3 L3-AI-03 Analog Input 3 3.12 V
13349 02/09/2026 14:53:49 MB-L5-01Mainboard Lantai 5 L5-AI-05 Analog Input 5 3.05 V
13350 02/09/2026 14:53:49 MB-L5-01Mainboard Lantai 5 L5-SHT-03-T SHT20 3 Temperature 32.20 °C
13351 02/09/2026 14:53:49 MB-L5-01Mainboard Lantai 5 L5-SHT-01-T SHT20 1 Temperature 32.30 °C
13352 02/09/2026 14:53:49 MB-L3-01Mainboard Lantai 3 L3-SHT-02-RH SHT20 2 Humidity 48.20 %RH
13353 02/09/2026 14:53:49 MB-L3-01Mainboard Lantai 3 L3-BGT-01 Black Globe Temperature 1 30.00 °C
13354 02/09/2026 14:53:49 MB-L5-01Mainboard Lantai 5 L5-SHT-02-T SHT20 2 Temperature 32.20 °C
13355 02/09/2026 14:53:49 MB-L5-01Mainboard Lantai 5 L5-SHT-03-RH SHT20 3 Humidity 48.50 %RH
13356 02/09/2026 14:53:49 MB-L5-01Mainboard Lantai 5 L5-AI-04 Analog Input 4 3.05 V
13357 02/09/2026 14:53:49 MB-L5-01Mainboard Lantai 5 L5-RAD-01 Radiation 1 2.00 W/m²
13358 02/09/2026 14:53:49 MB-L5-01Mainboard Lantai 5 L5-AI-03 Analog Input 3 3.05 V
13359 02/09/2026 14:53:49 MB-L3-01Mainboard Lantai 3 L3-AI-04 Analog Input 4 3.12 V
13360 02/09/2026 14:53:49 MB-L5-01Mainboard Lantai 5 L5-AI-02 Analog Input 2 3.05 V
13361 02/09/2026 14:53:49 MB-L3-01Mainboard Lantai 3 L3-BGT-02 Black Globe Temperature 2 30.00 °C
13362 02/09/2026 14:53:49 MB-L3-01Mainboard Lantai 3 L3-SHT-03-RH SHT20 3 Humidity 49.10 %RH
13363 02/09/2026 14:53:49 MB-L5-01Mainboard Lantai 5 L5-AI-01 Analog Input 1 3.05 V
13364 02/09/2026 14:53:49 MB-L3-01Mainboard Lantai 3 L3-ST-01 Surface Temperature 1 30.10 °C
13365 02/09/2026 14:53:49 MB-L3-01Mainboard Lantai 3 L3-RAD-02 Radiation 2 2.00 W/m²
13366 02/09/2026 14:53:49 MB-L3-01Mainboard Lantai 3 L3-AI-05 Analog Input 5 3.12 V
13367 02/09/2026 14:53:49 MB-L3-01Mainboard Lantai 3 L3-SHT-03-T SHT20 3 Temperature 31.80 °C
13368 02/09/2026 14:53:49 MB-L3-01Mainboard Lantai 3 L3-SHT-02-T SHT20 2 Temperature 32.00 °C
13369 02/09/2026 14:53:49 MB-L3-01Mainboard Lantai 3 L3-BGT-03 Black Globe Temperature 3 29.50 °C
13370 02/09/2026 14:53:49 MB-L5-01Mainboard Lantai 5 L5-BGT-03 Black Globe Temperature 3 29.80 °C
13371 02/09/2026 14:53:49 MB-L3-01Mainboard Lantai 3 L3-RAD-01 Radiation 1 2.00 W/m²
13372 02/09/2026 14:53:49 MB-L5-01Mainboard Lantai 5 L5-LUX-03 Illuminance / LUX 3 103.20 lux
13373 02/09/2026 14:53:49 MB-L5-01Mainboard Lantai 5 L5-BGT-02 Black Globe Temperature 2 29.70 °C
13374 02/09/2026 14:53:49 MB-L3-01Mainboard Lantai 3 L3-ST-02 Surface Temperature 2 30.50 °C
13375 02/09/2026 14:53:49 MB-L5-01Mainboard Lantai 5 L5-BGT-01 Black Globe Temperature 1 29.80 °C
13376 02/09/2026 14:53:49 MB-L3-01Mainboard Lantai 3 L3-AI-06 Analog Input 6 3.12 V
13377 02/09/2026 14:53:49 MB-L3-01Mainboard Lantai 3 L3-AI-01 Analog Input 1 3.12 V
13378 02/09/2026 14:53:49 MB-L5-01Mainboard Lantai 5 L5-HFT-02 Heat Flow Temperature 2 30.10 °C
13379 02/09/2026 14:53:49 MB-L5-01Mainboard Lantai 5 L5-SHT-01-RH SHT20 1 Humidity 48.20 %RH
13380 02/09/2026 14:53:49 MB-L3-01Mainboard Lantai 3 L3-HFT-01 Heat Flow Temperature 1 29.90 °C
13381 02/09/2026 14:53:49 MB-L5-01Mainboard Lantai 5 L5-HFT-01 Heat Flow Temperature 1 30.30 °C
13382 02/09/2026 14:53:49 MB-L5-01Mainboard Lantai 5 L5-LUX-01 Illuminance / LUX 1 155.30 lux
13383 02/09/2026 14:53:49 MB-L5-01Mainboard Lantai 5 L5-LUX-06 Illuminance / LUX 6 227.00 lux
13384 02/09/2026 14:53:49 MB-L5-01Mainboard Lantai 5 L5-ST-02 Surface Temperature 2 30.40 °C
13385 02/09/2026 14:53:49 MB-L5-01Mainboard Lantai 5 L5-LUX-02 Illuminance / LUX 2 239.20 lux
13386 02/09/2026 14:53:47 MB-L5-01Mainboard Lantai 5 L5-AI-05 Analog Input 5 3.05 V
13387 02/09/2026 14:53:47 MB-L5-01Mainboard Lantai 5 L5-SHT-03-T SHT20 3 Temperature 32.20 °C
13388 02/09/2026 14:53:47 MB-L5-01Mainboard Lantai 5 L5-SHT-01-T SHT20 1 Temperature 32.40 °C
13389 02/09/2026 14:53:47 MB-L5-01Mainboard Lantai 5 L5-SHT-02-T SHT20 2 Temperature 32.30 °C
13390 02/09/2026 14:53:47 MB-L5-01Mainboard Lantai 5 L5-SHT-03-RH SHT20 3 Humidity 48.40 %RH
13391 02/09/2026 14:53:47 MB-L5-01Mainboard Lantai 5 L5-AI-04 Analog Input 4 3.05 V
13392 02/09/2026 14:53:47 MB-L5-01Mainboard Lantai 5 L5-RAD-01 Radiation 1 2.00 W/m²
13393 02/09/2026 14:53:47 MB-L5-01Mainboard Lantai 5 L5-AI-03 Analog Input 3 3.05 V
13394 02/09/2026 14:53:47 MB-L5-01Mainboard Lantai 5 L5-AI-02 Analog Input 2 3.05 V
13395 02/09/2026 14:53:47 MB-L5-01Mainboard Lantai 5 L5-AI-01 Analog Input 1 3.05 V
13396 02/09/2026 14:53:47 MB-L5-01Mainboard Lantai 5 L5-BGT-03 Black Globe Temperature 3 29.90 °C
13397 02/09/2026 14:53:47 MB-L5-01Mainboard Lantai 5 L5-LUX-03 Illuminance / LUX 3 103.20 lux
13398 02/09/2026 14:53:47 MB-L5-01Mainboard Lantai 5 L5-BGT-02 Black Globe Temperature 2 29.70 °C
13399 02/09/2026 14:53:47 MB-L5-01Mainboard Lantai 5 L5-BGT-01 Black Globe Temperature 1 29.80 °C
13400 02/09/2026 14:53:47 MB-L5-01Mainboard Lantai 5 L5-HFT-02 Heat Flow Temperature 2 30.10 °C
Menampilkan maksimal 100 data per halaman